Location: Unspecified
(0.0000°N, 0.0000°E)
Time: 08:23:39
(UTC+00:00)

Explorer 11/Cluster Stage 4 - Pass Details

Date: 22 July 2020
Orbit: 467 x 1259 km, 28.8° (Epoch: 03 August)

Event Time Altitude Azimuth Distance (km) Brightness Sun altitude
Rises 16:41:43 0° 272° (W) 3,754 11.4 19.9°
Reaches altitude 10° 16:44:46 10° 259° (W) 2,921 10.6 19.2°
Maximum altitude 16:50:46 27° 205° (SSW) 2,112 9.0 17.8°
Drops below altitude 10° 16:57:21 10° 151° (SSE) 3,216 9.3 16.2°
Sets 17:00:54 0° 139° (SE) 4,202 9.8 15.4°
